Location: Central Falls
(41.8900°N, 71.3929°W)
Time: 12:42:28
(UTC+00:00)

A-11 Canister half - Pass Details

Date: 10 December 2023
Orbit: 1512 x 1687 km, 47.2° (Epoch: 20 February)

Event Time Altitude Azimuth Distance (km) Brightness Sun altitude
Rises 10:06:45 0° 297° (WNW) 4,850 - -20.7°
Reaches altitude 10° 10:09:56 10° 293° (WNW) 3,883 - -20.1°
Exits shadow 10:13:55 27° 281° (WNW) 2,790 9.7 -19.4°
Maximum altitude 10:19:26 52° 221° (SW) 2,010 9.4 -18.4°
Drops below altitude 10° 10:29:07 10° 149° (SSE) 3,943 11.8 -16.7°
Sets 10:32:24 0° 144° (SE) 4,929 12.5 -16.1°
